Showing default

COSMOS 158, 2801

Orbit data source: Space-Track

COSMOS 158, 2801 is a payload satellite owned by OKB-10 (CIS) in LEO that was launched on Mon, 15 May 1967 UTC via a KOSMOS 11K65M launch vehicle from the Plesetsk Missile And Space Complex (PKMTR). Payload-class satellites include a variety of spacecraft equipped with specific instruments for various scientific and technological missions. These include communications satellites like Starlink; space stations such as the ISS; scientific satellites like the Hubble; Earth observation satellites from companies like Planet Labs, Umbra, and HawkEye 360; GPS; miniature CubeSats for education and research; and military/defense satellites.

Loading next visibility...
Identifier
2801, 1967-045A
Orbit
LEO
Last TLE update
13 hours ago
Origin
Manufacturer
OKB-10
Mission
Defense Navigation
Bus & Motor
KAUR-1 11F617, Unknown motor
Mass
800 kg wet, 800 kg dry
Launch date (UTC)
1967-05-15 (58 years ago)
Launch vehicle
KOSMOS 11K65M
Launch site
Plesetsk Missile And Space Complex (PKMTR)
Object type
Payload
Rocket body
Debris
Shape & HBR
Cyl + 1 Rod, 17 m
Radar Cross Section
9.978 m², Large (>1 m²)

Expand to show TLE details & history

TLE from 13 hours ago
0 COSMOS 158
1 02801U 67045A   25191.83069954 -.00000003  00000-0  77782-5 0  9995
2 02801  74.0418 332.5331 0058117 264.1872  95.2654 14.36891106 47392
Epoch: 2025-07-10T19:56Z
TLE epoch observation values (Epoch: 2025-07-10T19:56:12.44Z)
Latitude
-0.00002°
Longitude
104.48992°
Altitude
775.453 km
Speed
7.464 km/s
True Right ascension
22h 10m 07s
True Declination
0° 00' 00"
Sunlit
Object was in full shadow at epoch
Visualization orbit readout
Latitude
-73.78972°
Longitude
25.44112°
Altitude
754.573 km
Speed
7.498 km/s
Apparent Right ascension
10h 48m 03s
Apparent Declination
-67° 54' 46"
Sunlit
Object is in full shadow
Visualization observer readout
Local Sidereal Time
21:11:52
Azimuth
197.352° SSW
Elevation
-59.087°
Doppler factor
1
Orbital elements
Apogee altitude
807.933 km
Perigee altitude
724.889 km
Semi-major axis
7,144.548 km
Eccentricity
0.00581
Inclination
74.0418°
RAAN
332.5331°
Arg. of periapsis
264.1872°
True anomaly
Unknown
Mean anomaly
95.2654°
Eccentric anomaly
Unknown
Mean motion
3.59402 °/min
Orbital period
100.17 mins
BSTAR
0.0000077782
Loading maneuver chart data...
Loading SW <> Apogee altitude chart data...
Loading historical data...
Loading historical data...
Loading historical data...
Loading historical data...
Loading historical data...
Loading historical data...
Loading historical data...
Other satellites on launch #45 in the year 1967 (1967-05-15 UTC)

COSMOS 158 Visibility forecast

Observer location: undefined°, undefined°

Span
Click to sort rows by Start time (UTC) header in descending order
Start Az.
Max El. time (UTC)
Max El. Az.
Max El.
End time (UTC)
End Az.
6 mins2025-07-11 09:26:14.765Z132.704° SE2025-07-11 09:29:14.765Z94.208° ESE18.144°2025-07-11 09:32:14.765Z57.295° ENE
8 mins2025-07-11 11:07:14.765Z223.968° SW2025-07-11 11:10:14.765Z273.674° WNW37.331°2025-07-11 11:15:14.765Z6.471° NNE
8 mins2025-07-11 19:54:14.765Z9.814° NNE2025-07-11 19:57:14.765Z56.648° ENE28.439°2025-07-11 20:02:14.765Z126.692° SE
7 mins2025-07-11 21:36:14.765Z310.456° NW2025-07-11 21:39:14.765Z265.783° W26.512°2025-07-11 21:43:14.765Z206.139° SW
|